GW2011 Weather Reports


Display with metric or nautical units.
time (UTC)temp
F
wind
direction
speed
MPH
gust
MPH
rain 1hr
in
rain 24hr
in
rain mn
in
humidity
%
barometer
mb
20260901063038 64 0 0.0 0.0 0.00 0.00 0.00 93 1011.0
20260901062518 64 0 0.0 0.0 0.00 0.00 0.00 92 1011.0
20260901062018 64 0 0.0 0.0 0.00 0.00 0.00 93 1011.2
20260901061541 64 0 0.0 0.0 0.00 0.00 0.00 93 1011.1
20260901061018 64 0 0.0 0.0 0.00 0.00 0.00 92 1011.2
20260901060520 64 0 0.0 0.0 0.00 0.00 0.00 92 1011.2
20260901060039 64 0 0.0 0.0 0.00 0.00 0.00 92 1011.3
20260901055522 64 0 0.0 0.0 0.00 0.00 0.00 91 1011.2
20260901055019 64 0 0.0 0.0 0.00 0.00 0.00 92 1011.1
20260901054541 64 0 0.0 0.0 0.00 0.00 0.00 92 1011.2
20260901054019 64 0 0.0 0.0 0.00 0.00 0.00 92 1011.1
20260901053520 64 0 0.0 0.0 0.00 0.00 0.00 91 1011.3
20260901053049 63 0 0.0 0.0 0.00 0.00 0.00 90 1011.2
20260901052518 63 0 0.0 0.0 0.00 0.00 0.00 90 1011.1
20260901052018 64 0 0.0 0.0 0.00 0.00 0.00 90 1011.3
20260901051556 64 0 0.0 0.0 0.00 0.00 0.00 90 1011.1
20260901051018 64 0 0.0 0.0 0.00 0.00 0.00 91 1011.2
20260901050520 64 0 0.0 0.0 0.00 0.00 0.00 91 1011.1
20260901050041 64 0 0.0 0.0 0.00 0.00 0.00 91 1011.0
20260901045519 64 0 0.0 0.0 0.00 0.00 0.00 90 1011.1
20260901045024 64 0 0.0 0.0 0.00 0.00 0.00 89 1011.0
20260901044537 64 0 0.0 0.0 0.00 0.00 0.00 88 1011.1
20260901044018 64 0 0.0 0.0 0.00 0.00 0.00 88 1011.0
20260901043518 64 0 0.0 0.0 0.00 0.00 0.00 88 1011.0
20260901043040 64 0 0.0 0.0 0.00 0.00 0.00 89 1011.0
20260901042518 64 0 0.0 0.0 0.00 0.00 0.00 88 1010.9
20260901042017 64 0 0.0 0.0 0.00 0.00 0.00 88 1010.9
20260901041551 64 0 0.0 0.0 0.00 0.00 0.00 87 1010.7
20260901041018 65 0 0.0 0.0 0.00 0.00 0.00 88 1010.6
20260901040520 65 0 0.0 0.0 0.00 0.00 0.00 88 1010.6
20260901040041 65 0 0.0 0.0 0.00 0.00 0.00 87 1010.4
20260901035520 65 0 0.0 0.0 0.00 0.00 0.00 87 1010.4
20260901035019 65 0 0.0 0.0 0.00 0.00 0.00 87 1010.4
20260901034538 65 0 0.0 0.0 0.00 0.00 0.00 89 1010.3
20260901034018 65 0 0.0 0.0 0.00 0.00 0.00 88 1010.3
20260901033518 65 0 0.0 0.0 0.00 0.00 0.00 87 1010.4
20260901033036 65 0 0.0 0.0 0.00 0.00 0.00 87 1010.5
20260901032518 66 0 0.0 0.0 0.00 0.00 0.00 86 1010.4
20260901032024 66 0 0.0 0.0 0.00 0.00 0.00 86 1010.4
20260901031551 66 0 0.0 0.0 0.00 0.00 0.00 87 1010.2
20260901031020 66 0 0.0 0.0 0.00 0.00 0.00 88 1010.5
20260901030518 66 0 0.0 0.0 0.00 0.00 0.00 87 1010.4
20260901030035 67 0 0.0 0.0 0.00 0.00 0.00 88 1010.5
20260901025519 67 0 0.0 0.0 0.00 0.00 0.00 88 1010.4
20260901025022 66 0 0.0 0.0 0.00 0.00 0.00 85 1010.4
20260901024536 67 0 0.0 1.0 0.00 0.00 0.00 84 1010.4
20260901024018 67 0 0.0 1.0 0.00 0.00 0.00 83 1010.2
20260901023520 67 0 0.0 1.0 0.00 0.00 0.00 83 1010.1
20260901023039 67 0 0.0 0.0 0.00 0.00 0.00 82 1010.1
20260901022520 68 0 0.0 0.0 0.00 0.00 0.00 82 1010.0
20260901022020 68 0 0.0 0.0 0.00 0.00 0.00 81 1010.1
20260901021536 68 0 0.0 0.0 0.00 0.00 0.00 81 1010.2
20260901021018 69 0 0.0 0.0 0.00 0.00 0.00 81 1010.0
20260901020520 69 0 0.0 0.0 0.00 0.00 0.00 80 1010.0
20260901020038 69 0 0.0 0.0 0.00 0.00 0.00 80 1010.1
20260901015517 70 0 0.0 0.0 0.00 0.00 0.00 80 1010.1
20260901015025 70 0 0.0 0.0 0.00 0.00 0.00 78 1010.2
20260901014546 71 0 0.0 0.0 0.00 0.00 0.00 78 1009.8
20260901014020 71 0 0.0 0.0 0.00 0.00 0.00 77 1009.9
20260901013520 71 0 0.0 0.0 0.00 0.00 0.00 77 1009.8
20260901013039 72 0 0.0 0.0 0.00 0.00 0.00 77 1009.8
20260901012519 72 0 0.0 0.0 0.00 0.00 0.00 76 1009.8
20260901012019 72 0 0.0 1.0 0.00 0.00 0.00 76 1009.5
20260901011536 73 0 0.0 1.0 0.00 0.00 0.00 75 1009.6
20260901011023 73 0 0.0 0.0 0.00 0.00 0.00 74 1009.5
20260901010519 74 0 0.0 0.0 0.00 0.00 0.00 73 1009.6
20260901010042 74 0 0.0 1.0 0.00 0.00 0.00 72 1009.5
20260901005518 75 0 0.0 1.0 0.00 0.00 0.00 72 1009.4
20260901005019 75 0 0.0 0.0 0.00 0.00 0.00 71 1009.5
20260901004543 76 0 0.0 0.0 0.00 0.00 0.00 69 1009.6
20260901004017 76 0 0.0 0.0 0.00 0.00 0.00 67 1009.7
20260901003521 77 0 0.0 0.0 0.00 0.00 0.00 66 1009.6
20260901003038 77 0 0.0 1.0 0.00 0.00 0.00 66 1009.6
20260901002518 77 0 0.0 1.0 0.00 0.00 0.00 66 1009.6
20260901002020 78 0 0.0 1.0 0.00 0.00 0.00 65 1009.7
20260901001550 78 0 0.0 1.0 0.00 0.00 0.00 64 1009.5
20260901001018 78 0 0.0 1.0 0.00 0.00 0.00 63 1009.5
20260901000518 79 0 0.0 1.0 0.00 0.00 0.00 64 1009.6
20260901000036 79 255 0.0 2.0 0.00 0.00 0.00 66 1009.7
20260831235517 79 255 0.0 3.0 0.00 0.00 0.00 63 1009.5
20260831235019 79 257 1.0 4.0 0.00 0.00 0.00 63 1009.5
20260831234557 79 259 2.0 4.0 0.00 0.00 0.00 63 1009.6
20260831234019 80 257 2.0 4.0 0.00 0.00 0.00 62 1009.6
20260831233519 80 257 1.0 4.0 0.00 0.00 0.00 62 1009.7
20260831233044 80 254 2.0 4.0 0.00 0.00 0.00 64 1009.6
20260831232519 81 255 2.0 4.0 0.00 0.00 0.00 60 1009.6
20260831232018 81 0 0.0 2.0 0.00 0.00 0.00 60 1009.6
20260831231538 81 0 0.0 1.0 0.00 0.00 0.00 56 1009.6
20260831231020 81 265 0.0 1.0 0.00 0.00 0.00 56 1009.6
20260831230517 81 0 0.0 2.0 0.00 0.00 0.00 55 1009.6
20260831230036 82 0 0.0 2.0 0.00 0.00 0.00 56 1009.6
20260831225524 82 0 0.0 2.0 0.00 0.00 0.00 57 1009.6
20260831225019 82 0 0.0 4.0 0.00 0.00 0.00 55 1009.6
20260831224537 82 263 1.0 4.0 0.00 0.00 0.00 54 1009.5
20260831224020 83 258 2.0 4.0 0.00 0.00 0.00 54 1009.5
20260831223520 83 259 0.0 3.0 0.00 0.00 0.00 52 1009.5
20260831223037 83 265 1.0 3.0 0.00 0.00 0.00 50 1009.4
20260831222520 83 0 0.0 3.0 0.00 0.00 0.00 47 1009.5
20260831222017 83 0 1.0 3.0 0.00 0.00 0.00 49 1009.5
20260831221537 83 0 0.0 2.0 0.00 0.00 0.00 51 1009.4
20260831221019 83 0 0.0 2.0 0.00 0.00 0.00 47 1009.3
20260831220522 83 0 0.0 3.0 0.00 0.00 0.00 47 1009.3
20260831220035 83 0 1.0 4.0 0.00 0.00 0.00 48 1009.3
20260831215516 84 264 1.0 4.0 0.00 0.00 0.00 47 1009.5
20260831215020 84 263 2.0 4.0 0.00 0.00 0.00 44 1009.5
20260831214537 85 263 1.0 3.0 0.00 0.00 0.00 45 1009.3
20260831214020 85 0 0.0 1.0 0.00 0.00 0.00 46 1009.4
20260831213520 85 0 0.0 1.0 0.00 0.00 0.00 49 1009.2
20260831213037 85 0 0.0 2.0 0.00 0.00 0.00 44 1009.0
20260831212519 85 0 0.0 2.0 0.00 0.00 0.00 46 1009.2
20260831212018 86 170 0.0 1.0 0.00 0.00 0.00 40 1009.3
20260831211538 86 0 0.0 1.0 0.00 0.00 0.00 42 1009.4
20260831211017 86 0 0.0 2.0 0.00 0.00 0.00 42 1009.3
20260831210520 86 0 0.0 2.0 0.00 0.00 0.00 41 1009.3
20260831210038 85 0 0.0 2.0 0.00 0.00 0.00 45 1009.3
20260831205518 85 0 0.0 2.0 0.00 0.00 0.00 42 1009.4
20260831205020 85 0 0.0 2.0 0.00 0.00 0.00 43 1009.4
20260831204535 85 0 0.0 3.0 0.00 0.00 0.00 40 1009.4
20260831204018 85 261 1.0 3.0 0.00 0.00 0.00 38 1009.5
20260831203520 85 0 0.0 3.0 0.00 0.00 0.00 39 1009.2
20260831203038 85 310 0.0 2.0 0.00 0.00 0.00 42 1009.3
20260831202519 85 267 0.0 3.0 0.00 0.00 0.00 41 1009.3
20260831202016 85 273 0.0 3.0 0.00 0.00 0.00 44 1009.2
20260831201545 85 0 0.0 3.0 0.00 0.00 0.00 44 1009.4
20260831201021 85 284 0.0 3.0 0.00 0.00 0.00 44 1009.3
20260831200517 84 0 0.0 3.0 0.00 0.00 0.00 44 1009.2
20260831200036 84 0 0.0 4.0 0.00 0.00 0.00 44 1009.2
20260831195520 84 0 1.0 4.0 0.00 0.00 0.00 44 1009.3
20260831195020 84 271 0.0 4.0 0.00 0.00 0.00 46 1009.3
20260831194535 85 275 1.0 4.0 0.00 0.00 0.00 47 1009.3
20260831194021 85 270 1.0 4.0 0.00 0.00 0.00 46 1009.3
20260831193518 86 287 0.0 3.0 0.00 0.00 0.00 47 1009.1
20260831193036 86 331 0.0 3.0 0.00 0.00 0.00 49 1009.1
20260831192519 86 163 0.0 2.0 0.00 0.00 0.00 48 1009.1
20260831192020 85 0 0.0 2.0 0.00 0.00 0.00 47 1009.0
20260831191536 85 0 0.0 2.0 0.00 0.00 0.00 49 1008.9
20260831191021 85 0 0.0 2.0 0.00 0.00 0.00 49 1009.0
20260831190519 85 276 0.0 2.0 0.00 0.00 0.00 46 1009.0
20260831190041 85 227 0.0 2.0 0.00 0.00 0.00 48 1008.9
20260831185520 85 0 0.0 2.0 0.00 0.00 0.00 50 1009.0
20260831185019 85 0 0.0 2.0 0.00 0.00 0.00 50 1009.0
20260831184538 84 0 0.0 3.0 0.00 0.00 0.00 52 1009.0
20260831184017 85 176 0.0 3.0 0.00 0.00 0.00 49 1009.0
20260831183519 85 94 0.0 2.0 0.00 0.00 0.00 51 1009.0
20260831183035 85 0 0.0 2.0 0.00 0.00 0.00 51 1008.9
20260831182518 84 0 0.0 3.0 0.00 0.00 0.00 55 1008.8
20260831182018 84 299 0.0 3.0 0.00 0.00 0.00 54 1009.0
20260831181537 83 0 0.0 3.0 0.00 0.00 0.00 53 1009.0
20260831181020 83 96 0.0 3.0 0.00 0.00 0.00 54 1009.0
20260831180520 82 0 0.0 3.0 0.00 0.00 0.00 54 1009.0
20260831180037 82 0 1.0 3.0 0.00 0.00 0.00 54 1009.1
20260831175519 83 252 0.0 3.0 0.00 0.00 0.00 55 1009.1
20260831175019 83 166 0.0 3.0 0.00 0.00 0.00 57 1009.1
20260831174538 82 128 0.0 2.0 0.00 0.00 0.00 58 1009.1
20260831174020 82 94 0.0 2.0 0.00 0.00 0.00 57 1009.0
20260831173519 82 0 0.0 3.0 0.00 0.00 0.00 56 1009.0
20260831173038 82 0 0.0 3.0 0.00 0.00 0.00 58 1009.4
20260831172520 82 280 0.0 2.0 0.00 0.00 0.00 55 1009.3
20260831172020 82 0 0.0 2.0 0.00 0.00 0.00 60 1009.6
20260831171534 81 5 0.0 4.0 0.00 0.00 0.00 55 1009.4
20260831171019 81 337 1.0 4.0 0.00 0.00 0.00 59 1009.5
20260831170518 81 327 0.0 3.0 0.00 0.00 0.00 61 1009.4
20260831170039 81 0 0.0 2.0 0.00 0.00 0.00 61 1009.6
20260831165518 80 149 0.0 2.0 0.00 0.00 0.00 62 1009.5
20260831165018 80 0 0.0 2.0 0.00 0.00 0.00 64 1009.5
20260831164536 79 0 0.0 2.0 0.00 0.00 0.00 65 1009.4
20260831164020 79 0 0.0 4.0 0.00 0.00 0.00 67 1009.6
20260831163518 79 94 0.0 4.0 0.00 0.00 0.00 70 1009.5
20260831163045 78 0 0.0 3.0 0.00 0.00 0.00 70 1009.5
20260831162520 78 309 0.0 4.0 0.00 0.00 0.00 69 1009.5
20260831162019 78 234 0.0 4.0 0.00 0.00 0.00 70 1009.5
20260831161537 78 0 0.0 3.0 0.00 0.00 0.00 71 1009.2
20260831161025 77 264 0.0 3.0 0.00 0.00 0.00 72 1009.2
20260831160518 77 0 0.0 2.0 0.00 0.00 0.00 75 1009.4
20260831160052 76 0 0.0 2.0 0.00 0.00 0.00 75 1009.3
20260831155520 76 0 0.0 2.0 0.00 0.00 0.00 74 1009.2
20260831155020 75 0 0.0 2.0 0.00 0.00 0.00 73 1009.2
20260831154600 75 299 0.0 2.0 0.00 0.00 0.00 77 1009.1
20260831154018 75 340 0.0 2.0 0.00 0.00 0.00 78 1009.2
20260831153520 75 265 0.0 2.0 0.00 0.00 0.00 80 1009.2
20260831153038 74 0 0.0 2.0 0.00 0.00 0.00 81 1009.0
20260831152519 74 203 0.0 2.0 0.00 0.00 0.00 81 1008.9
20260831152019 74 0 0.0 2.0 0.00 0.00 0.00 80 1008.8
20260831151540 74 290 0.0 2.0 0.00 0.00 0.00 80 1008.7
20260831151020 74 0 0.0 2.0 0.00 0.00 0.00 81 1008.7
20260831150521 74 290 0.0 4.0 0.00 0.00 0.00 81 1008.7
20260831150044 74 0 0.0 4.0 0.00 0.00 0.00 82 1008.6
20260831145518 74 273 0.0 3.0 0.00 0.00 0.00 83 1008.5
20260831145023 73 0 0.0 3.0 0.00 0.00 0.00 83 1008.5
20260831144539 73 0 0.0 2.0 0.00 0.00 0.00 83 1008.7
20260831144019 73 0 0.0 2.0 0.00 0.00 0.00 84 1008.5
20260831143521 72 0 0.0 2.0 0.00 0.00 0.00 84 1008.5
20260831143040 72 158 0.0 2.0 0.00 0.00 0.00 84 1008.3
20260831142520 72 0 0.0 3.0 0.00 0.00 0.00 84 1008.1
20260831142024 72 30 0.0 3.0 0.00 0.00 0.00 85 1007.9
20260831141540 72 321 0.0 3.0 0.00 0.00 0.00 86 1007.8
20260831141019 72 0 0.0 1.0 0.00 0.00 0.00 88 1007.9
20260831140517 72 73 0.0 1.0 0.00 0.00 0.00 90 1007.9
20260831140047 71 123 0.0 1.0 0.00 0.00 0.00 90 1007.7
20260831135520 71 0 0.0 1.0 0.00 0.00 0.00 91 1007.8
20260831135023 71 0 0.0 2.0 0.00 0.00 0.00 91 1007.6
20260831134538 71 0 0.0 2.0 0.00 0.00 0.00 92 1007.5
20260831134019 71 0 0.0 1.0 0.00 0.00 0.00 92 1007.5
20260831133517 71 0 0.0 1.0 0.00 0.00 0.00 93 1007.1
20260831133038 71 0 0.0 2.0 0.00 0.00 0.00 93 1007.0
20260831132521 70 321 0.0 2.0 0.00 0.00 0.00 93 1006.9
20260831132020 70 315 0.0 2.0 0.00 0.00 0.00 94 1006.9
20260831131536 70 0 0.0 2.0 0.00 0.00 0.00 94 1007.0
20260831131020 70 314 0.0 2.0 0.00 0.00 0.00 94 1006.8
20260831130519 70 300 0.0 2.0 0.00 0.00 0.00 95 1006.8
20260831130040 70 219 0.0 2.0 0.00 0.00 0.00 95 1006.6
20260831125520 70 223 0.0 2.0 0.00 0.00 0.00 95 1006.6
20260831125019 70 0 0.0 2.0 0.00 0.00 0.00 95 1006.7
20260831124537 70 0 0.0 2.0 0.00 0.00 0.00 95 1006.6
20260831124017 70 234 0.0 1.0 0.00 0.00 0.00 96 1006.6
20260831123517 70 0 0.0 1.0 0.00 0.00 0.00 96 1006.5
20260831123040 70 0 0.0 1.0 0.00 0.00 0.00 95 1006.2
20260831122524 69 0 0.0 1.0 0.00 0.00 0.00 95 1006.3
20260831122019 69 0 0.0 1.0 0.00 0.00 0.00 95 1006.1
20260831121537 70 234 0.0 0.0 0.00 0.00 0.00 95 1005.8
20260831121019 70 0 0.0 0.0 0.00 0.00 0.00 95 1005.6
20260831120521 69 0 0.0 0.0 0.00 0.00 0.00 95 1005.5
20260831120041 69 0 0.0 0.0 0.00 0.00 0.00 95 1005.4
20260831115520 69 0 0.0 0.0 0.00 0.00 0.00 94 1005.4
20260831115020 69 0 0.0 0.0 0.00 0.00 0.00 95 1005.2
20260831114547 69 0 0.0 0.0 0.00 0.00 0.00 95 1005.3
20260831114018 69 0 0.0 0.0 0.00 0.00 0.00 95 1005.0
20260831113517 69 0 0.0 0.0 0.00 0.00 0.00 94 1005.0
20260831113041 69 0 0.0 0.0 0.00 0.00 0.00 94 1005.2
20260831112518 69 0 0.0 0.0 0.00 0.00 0.00 94 1005.1
20260831112019 69 0 0.0 0.0 0.00 0.00 0.00 94 1005.0
20260831111538 69 0 0.0 1.0 0.00 0.00 0.00 94 1005.2
20260831111027 69 0 0.0 1.0 0.00 0.00 0.00 95 1005.1
20260831110524 68 0 0.0 2.0 0.00 0.00 0.00 94 1005.1
20260831110049 69 0 0.0 2.0 0.00 0.00 0.00 93 1004.9
20260831105518 69 0 0.0 0.0 0.00 0.00 0.00 93 1004.8
20260831105018 69 0 0.0 0.0 0.00 0.00 0.00 94 1004.9
20260831104541 69 0 0.0 0.0 0.00 0.00 0.00 94 1004.7
20260831104017 69 0 0.0 0.0 0.00 0.00 0.00 94 1004.8
20260831103518 69 0 0.0 0.0 0.00 0.00 0.00 94 1004.9
20260831103040 69 0 0.0 0.0 0.00 0.00 0.00 94 1004.9
20260831102519 69 0 0.0 0.0 0.00 0.00 0.00 94 1004.8
20260831102018 69 0 0.0 0.0 0.00 0.00 0.00 94 1004.9
20260831101544 69 0 0.0 0.0 0.00 0.00 0.00 93 1004.6
20260831101019 70 0 0.0 0.0 0.00 0.00 0.00 94 1004.5
20260831100519 70 0 0.0 0.0 0.00 0.00 0.00 94 1004.7
20260831100042 70 0 0.0 0.0 0.00 0.00 0.00 94 1004.5
20260831095520 70 0 0.0 0.0 0.00 0.00 0.00 94 1004.4
20260831095020 70 0 0.0 0.0 0.00 0.00 0.00 93 1004.5
20260831094541 70 0 0.0 0.0 0.00 0.00 0.00 93 1004.4
20260831094021 70 0 0.0 0.0 0.00 0.00 0.00 93 1004.4
20260831093518 70 0 0.0 0.0 0.00 0.00 0.00 94 1004.4
20260831093038 70 0 0.0 0.0 0.00 0.00 0.00 94 1004.2
20260831092519 70 0 0.0 0.0 0.00 0.00 0.00 93 1004.4
20260831092018 70 0 0.0 1.0 0.00 0.00 0.00 93 1004.3
20260831091545 70 0 0.0 1.0 0.00 0.00 0.00 93 1004.4
20260831091019 70 0 0.0 1.0 0.00 0.00 0.00 93 1004.4
20260831090518 70 0 0.0 1.0 0.00 0.00 0.00 93 1004.4
20260831090036 70 0 0.0 1.0 0.00 0.00 0.00 93 1004.3
20260831085522 71 0 0.0 1.0 0.00 0.00 0.00 92 1004.4
20260831085020 71 0 0.0 1.0 0.00 0.00 0.00 93 1004.4
20260831084539 71 0 0.0 1.0 0.00 0.00 0.00 93 1004.2
20260831084017 71 0 0.0 1.0 0.00 0.00 0.00 93 1004.3
20260831083519 71 0 0.0 1.0 0.00 0.00 0.00 93 1004.1
20260831083038 71 232 0.0 1.0 0.00 0.00 0.00 93 1003.9
20260831082516 72 0 0.0 1.0 0.00 0.00 0.00 93 1004.0
20260831082019 72 232 0.0 1.0 0.00 0.00 0.00 93 1004.0
20260831081538 72 0 0.0 1.0 0.00 0.00 0.00 93 1003.9
20260831081017 72 0 0.0 2.0 0.00 0.00 0.00 93 1003.9
20260831080519 72 232 0.0 3.0 0.00 0.00 0.00 93 1003.8
20260831080039 72 232 0.0 3.0 0.00 0.00 0.00 93 1003.8
20260831075519 72 39 0.0 3.0 0.00 0.00 0.00 93 1003.8
20260831075020 72 0 0.0 3.0 0.00 0.00 0.00 93 1003.9
20260831074541 72 180 0.0 4.0 0.00 0.00 0.00 92 1003.8
20260831074020 72 0 0.0 4.0 0.00 0.00 0.00 92 1003.9
20260831073518 72 223 1.0 3.0 0.00 0.00 0.00 92 1003.7
20260831073039 72 198 0.0 2.0 0.00 0.00 0.00 92 1003.8
20260831072521 72 0 1.0 4.0 0.00 0.00 0.00 92 1003.9
20260831072018 72 0 1.0 4.0 0.00 0.00 0.00 92 1003.9
20260831071541 72 201 0.0 5.0 0.00 0.00 0.00 92 1003.9
20260831071018 72 0 0.0 5.0 0.00 0.00 0.00 92 1004.0
20260831070518 73 157 2.0 6.0 0.00 0.00 0.00 92 1004.2
20260831070045 73 194 2.0 6.0 0.00 0.00 0.00 92 1004.0
20260831065520 73 181 2.0 6.0 0.00 0.00 0.00 92 1003.9
20260831065022 73 182 1.0 3.0 0.00 0.00 0.00 91 1004.0
20260831064541 73 0 0.0 3.0 0.00 0.00 0.00 91 1003.9
20260831064018 73 222 0.0 4.0 0.00 0.00 0.00 91 1003.9
20260831063519 73 185 2.0 6.0 0.00 0.00 0.00 91 1003.8